Tracking 19176 objects as of 28-May-2018
HD Live streaming from Space Station
objects crossing your sky now

ASTRA 1H

Track ASTRA 1H now!
ASTRA 1H is classified as:


NORAD ID: 25785
Int'l Code: 1999-033A
Perigee: 35,781.6 km
Apogee: 35,805.9 km
Inclination: 4.5 °
Period: 1,436.1 minutes
Semi major axis: 42164 km
RCS: 0.8136 m2 (medium)
Launch date: June 18, 1999
Source: SOCIETE EUROPEENNE DES SATELLITES (SES)
Launch site: TYURATAM MISSILE AND SPACE COMPLEX (TTMTR)

Direct-to-home tv; multimedia; broadcasting; 32 Ku-band for first five years, 28 after; Europe
aabbcc
Your satellite tracking list
Your tracking list is empty




NASA's NSSDC Master Catalog

Two Line Element Set (TLE):
1 25785U 99033A   18148.16785531 -.00000285  00000-0  00000+0 0  9994
2 25785   4.4878  67.7537 0002875 348.2868 182.9670  1.00271707 69289
Source of the keplerian elements: AFSPC